Location: Recife
(8.0585°S, 34.8848°W)
Time: 07:43:51
(UTC-03:00)

Courier 1B - Pass Details

Date: 19 April 2026
Orbit: 962 x 1209 km, 28.3° (Epoch: 13 May)

Event Time Altitude Azimuth Distance (km) Brightness Sun altitude
Rises 11:19:53 0° 230° (SW) 4,102 10.6 70.6°
Reaches altitude 10° 11:23:11 10° 219° (SW) 3,119 10.1 70.6°
Maximum altitude 11:29:52 31° 160° (SSE) 1,920 9.3 70.4°
Drops below altitude 10° 11:36:14 10° 100° (E) 2,984 10.1 70.1°
Sets 11:39:19 0° 90° (E) 3,900 10.6 70.0°
